• In Uzbekistan
  • List of Countries
  • For 7 days
  • Water Temperature
  • Satellite Maps
  • Weather Map
  • Weather Widgets
  • user-avatar
    Login

    Hourly Weather Bad Salzungen

    Today, 26 April, Thursday

    Time Temperature Precipitation Wind Pressure Humidity
    00:00 +7°C° 0 mm 3 mps 749 mmHg 88%
    01:00 +5°C° 0 mm 3 mps 749 mmHg 88%
    02:00 +6°C° 0.2 mm 4 mps 749 mmHg 89%
    03:00 +6°C° 0.2 mm 4 mps 749 mmHg 90%
    04:00 +6°C° 0.2 mm 5 mps 749 mmHg 91%
    05:00 +6°C° 0.3 mm 5 mps 749 mmHg 90%
    06:00 +5°C° 0.3 mm 6 mps 749 mmHg 88%
    07:00 +7°C° 0.3 mm 6 mps 750 mmHg 87%
    08:00 +7°C° 0.3 mm 6 mps 750 mmHg 83%
    09:00 +8°C° 0.3 mm 7 mps 750 mmHg 80%
    10:00 +9°C° 0.3 mm 7 mps 751 mmHg 77%
    11:00 +10°C° 0.3 mm 7 mps 751 mmHg 73%
    12:00 +10°C° 0.3 mm 7 mps 751 mmHg 69%
    13:00 +11°C° 0.3 mm 7 mps 751 mmHg 64%
    14:00 +11°C° 0.3 mm 7 mps 751 mmHg 63%
    15:00 +11°C° 0.3 mm 7 mps 751 mmHg 62%
    16:00 +11°C° 0.3 mm 7 mps 751 mmHg 61%
    17:00 +10°C° 0.1 mm 5 mps 751 mmHg 65%
    18:00 +11°C° 0.1 mm 4 mps 752 mmHg 69%
    19:00 +10°C° 0.1 mm 3 mps 752 mmHg 73%
    20:00 +8°C° 0 mm 3 mps 752 mmHg 76%
    21:00 +7°C° 0 mm 2 mps 752 mmHg 79%
    22:00 +6°C° 0 mm 2 mps 752 mmHg 82%
    23:00 +6°C° 0 mm 2 mps 752 mmHg 83%

    Tomorrow, 27 April, Friday

    Time Temperature Precipitation Wind Pressure Humidity
    00:00 +5°C° 0 mm 2 mps 752 mmHg 84%
    01:00 +5°C° 0 mm 2 mps 752 mmHg 84%
    02:00 +5°C° 0 mm 2 mps 752 mmHg 85%
    03:00 +5°C° 0 mm 2 mps 752 mmHg 86%
    04:00 +4°C° 0 mm 2 mps 751 mmHg 87%
    05:00 +4°C° 0 mm 3 mps 751 mmHg 85%
    06:00 +5°C° 0 mm 3 mps 751 mmHg 82%
    07:00 +7°C° 0 mm 3 mps 751 mmHg 79%
    08:00 +9°C° 0 mm 3 mps 751 mmHg 72%
    09:00 +10°C° 0 mm 3 mps 750 mmHg 64%
    10:00 +12°C° 0 mm 3 mps 750 mmHg 56%
    11:00 +13°C° 0 mm 3 mps 750 mmHg 55%
    12:00 +14°C° 0 mm 2 mps 749 mmHg 54%
    13:00 +15°C° 0 mm 2 mps 749 mmHg 53%
    14:00 +15°C° 0 mm 2 mps 748 mmHg 54%
    15:00 +16°C° 0 mm 2 mps 748 mmHg 54%
    16:00 +16°C° 0 mm 2 mps 747 mmHg 54%
    17:00 +15°C° 0 mm 2 mps 747 mmHg 60%
    18:00 +15°C° 0 mm 2 mps 746 mmHg 66%
    19:00 +14°C° 0 mm 2 mps 746 mmHg 72%
    20:00 +12°C° 0 mm 3 mps 746 mmHg 74%
    21:00 +11°C° 0 mm 3 mps 746 mmHg 76%
    22:00 +10°C° 0 mm 3 mps 746 mmHg 78%
    23:00 +10°C° 0 mm 3 mps 746 mmHg 79%

    Day after tomorrow, 28 April, Saturday

    Time Temperature Precipitation Wind Pressure Humidity
    00:00 +10°C° 0 mm 4 mps 745 mmHg 80%
    01:00 +10°C° 0 mm 4 mps 745 mmHg 81%
    02:00 +10°C° 0 mm 4 mps 746 mmHg 83%
    03:00 +8°C° 0 mm 5 mps 746 mmHg 86%
    04:00 +8°C° 0 mm 5 mps 746 mmHg 89%
    05:00 +8°C° 0 mm 5 mps 746 mmHg 87%
    06:00 +8°C° 0 mm 5 mps 747 mmHg 85%
    07:00 +9°C° 0 mm 6 mps 747 mmHg 84%
    08:00 +9°C° 0.1 mm 5 mps 748 mmHg 82%
    09:00 +10°C° 0.1 mm 5 mps 749 mmHg 81%
    10:00 +12°C° 0.1 mm 5 mps 749 mmHg 79%
    11:00 +12°C° 0.2 mm 4 mps 749 mmHg 78%
    12:00 +13°C° 0.2 mm 4 mps 750 mmHg 76%
    13:00 +13°C° 0.2 mm 4 mps 750 mmHg 74%
    14:00 +13°C° 0.1 mm 4 mps 750 mmHg 75%
    15:00 +13°C° 0.1 mm 3 mps 750 mmHg 76%
    16:00 +12°C° 0.1 mm 3 mps 750 mmHg 77%
    17:00 +12°C° 0 mm 3 mps 750 mmHg 80%
    18:00 +12°C° 0 mm 2 mps 750 mmHg 82%
    19:00 +10°C° 0 mm 2 mps 750 mmHg 85%
    20:00 +10°C° 0 mm 2 mps 751 mmHg 86%
    21:00 +9°C° 0 mm 2 mps 751 mmHg 88%
    22:00 +8°C° 0 mm 3 mps 751 mmHg 89%
    23:00 +8°C° 0 mm 3 mps 751 mmHg 89%

    29 April, Sunday

    Time Temperature Precipitation Wind Pressure Humidity
    00:00 +7°C° 0 mm 3 mps 751 mmHg 89%
    01:00 +7°C° 0 mm 3 mps 751 mmHg 89%
    02:00 +7°C° 0.2 mm 3 mps 750 mmHg 90%
    03:00 +7°C° 0.2 mm 3 mps 750 mmHg 90%
    04:00 +7°C° 0.2 mm 3 mps 750 mmHg 91%
    05:00 +7°C° 0.8 mm 3 mps 750 mmHg 92%
    06:00 +7°C° 0.8 mm 3 mps 749 mmHg 94%
    07:00 +8°C° 0.8 mm 3 mps 749 mmHg 95%
    08:00 +8°C° 0.4 mm 4 mps 748 mmHg 93%
    09:00 +9°C° 0.4 mm 5 mps 748 mmHg 91%
    10:00 +10°C° 0.4 mm 6 mps 747 mmHg 89%
    11:00 +13°C° 0.3 mm 6 mps 747 mmHg 84%
    12:00 +15°C° 0.3 mm 5 mps 746 mmHg 79%
    13:00 +17°C° 0.3 mm 5 mps 746 mmHg 74%
    14:00 +17°C° 0.7 mm 5 mps 745 mmHg 76%
    15:00 +19°C° 0.7 mm 4 mps 744 mmHg 78%
    16:00 +19°C° 0.7 mm 4 mps 744 mmHg 80%
    17:00 +18°C° 0.9 mm 4 mps 743 mmHg 83%
    18:00 +18°C° 0.9 mm 4 mps 743 mmHg 86%
    19:00 +17°C° 0.9 mm 4 mps 742 mmHg 89%
    20:00 +15°C° 0.3 mm 4 mps 742 mmHg 90%
    21:00 +15°C° 0.3 mm 4 mps 741 mmHg 91%
    22:00 +15°C° 0.3 mm 4 mps 741 mmHg 92%
    23:00 +15°C° 1.9 mm 4 mps 740 mmHg 93%

    30 April, Monday

    Time Temperature Precipitation Wind Pressure Humidity
    00:00 +14°C° 1.9 mm 4 mps 740 mmHg 95%
    01:00 +14°C° 1.9 mm 4 mps 739 mmHg 96%
    02:00 +13°C° 0.7 mm 4 mps 740 mmHg 95%
    03:00 +13°C° 0.7 mm 5 mps 740 mmHg 94%
    04:00 +12°C° 0.7 mm 5 mps 740 mmHg 93%
    05:00 +12°C° 0 mm 5 mps 740 mmHg 91%
    06:00 +10°C° 0 mm 6 mps 741 mmHg 88%
    07:00 +10°C° 0 mm 6 mps 741 mmHg 85%
    08:00 +10°C° 0 mm 6 mps 741 mmHg 81%
    09:00 +10°C° 0 mm 7 mps 742 mmHg 77%
    10:00 +10°C° 0 mm 7 mps 742 mmHg 72%
    11:00 +11°C° 0 mm 8 mps 742 mmHg 68%
    12:00 +12°C° 0 mm 8 mps 742 mmHg 63%
    13:00 +13°C° 0 mm 9 mps 742 mmHg 59%
    14:00 +12°C° 0.1 mm 9 mps 742 mmHg 60%
    15:00 +11°C° 0.1 mm 9 mps 743 mmHg 61%
    16:00 +11°C° 0.1 mm 9 mps 743 mmHg 63%
    17:00 +10°C° 0 mm 9 mps 743 mmHg 63%
    18:00 +9°C° 0 mm 8 mps 743 mmHg 63%
    19:00 +8°C° 0 mm 7 mps 743 mmHg 64%
    20:00 +7°C° 0 mm 8 mps 743 mmHg 64%
    21:00 +6°C° 0 mm 8 mps 744 mmHg 65%
    22:00 +6°C° 0 mm 9 mps 744 mmHg 66%
    23:00 +5°C° 0 mm 8 mps 745 mmHg 67%

    1 May, Tuesday

    Time Temperature Precipitation Wind Pressure Humidity
    00:00 +5°C° 0 mm 8 mps 745 mmHg 67%
    01:00 +5°C° 0 mm 8 mps 746 mmHg 68%
    02:00 +4°C° 0 mm 8 mps 746 mmHg 69%
    03:00 +4°C° 0 mm 8 mps 746 mmHg 70%
    04:00 +4°C° 0 mm 8 mps 747 mmHg 71%
    05:00 +4°C° 0 mm 8 mps 747 mmHg 70%
    06:00 +4°C° 0 mm 8 mps 747 mmHg 70%
    07:00 +4°C° 0 mm 8 mps 748 mmHg 69%
    08:00 +5°C° 0 mm 8 mps 748 mmHg 66%
    09:00 +5°C° 0 mm 8 mps 748 mmHg 64%
    10:00 +6°C° 0 mm 8 mps 749 mmHg 61%
    11:00 +7°C° 0 mm 8 mps 749 mmHg 61%
    12:00 +7°C° 0 mm 8 mps 749 mmHg 60%
    13:00 +9°C° 0 mm 8 mps 749 mmHg 59%
    14:00 +9°C° 0 mm 7 mps 749 mmHg 59%
    15:00 +10°C° 0 mm 7 mps 749 mmHg 59%
    16:00 +10°C° 0 mm 7 mps 750 mmHg 58%
    17:00 +9°C° 0 mm 5 mps 750 mmHg 62%
    18:00 +10°C° 0 mm 4 mps 750 mmHg 66%
    19:00 +9°C° 0 mm 3 mps 750 mmHg 71%
    20:00 +8°C° 0 mm 3 mps 750 mmHg 74%
    21:00 +7°C° 0 mm 3 mps 751 mmHg 78%
    22:00 +5°C° 0 mm 2 mps 751 mmHg 81%
    23:00 +5°C° 0 mm 2 mps 751 mmHg 82%
    Show more